Home > Weather > Norwalk > Past weeks

Flag for USA Past Weather in Norwalk, California, USA — Yesterday and Last 2 Weeks

Now
69 °F

Sunny.


Feels Like: 69 °F
Forecast: 62 / 77 °F
Wind: 7 mph from North

Location: Fullerton Municipal Airport

Current Time: May 31, 2016 at 6:52:31 PM

Latest Report: May 31, 2016 at 5:53 PM


Visibility: 10 mi

Pressure: 29.82 "Hg

Humidity: 66%

Dew Point: 57 °F

Location of NorwalkLocation

Past Weather in Norwalk — Graph

°F

Norwalk Temperature Yesterday

Maximum temperature yesterday: 75 °F (at 2:53 PM)
Minimum temperature yesterday: 59 °F (at 10:53 PM)
Average temperature yesterday: 66 °F

High & Low Weather Summary for the Past Weeks

 TemperatureHumidityPressure
High77 °F (May 18, 12:53 PM)87% (May 17, 11:53 PM)30.08 "Hg (May 17, 11:53 PM)
Low54 °F (May 21, 5:53 AM)33% (May 22, 4:53 PM)29.81 "Hg (May 19, 5:53 PM)
Average65 °F65%29.94 "Hg
* Reported May 16 4:53 PM — May 31 4:53 PM, Norwalk, Weather by CustomWeather, © 2016

Note: Actual official high and low records may vary slightly from our data, if they occured in-between our weather recording intervals... More about our weather records

Advertising

Norwalk Weather History for the Previous 24 Hours

Scroll right to see more
 ConditionsComfort  
Time TempWeatherWind HumidityBarometerVisibility
4:53 PM
Tue, May 31
70 °FSunny.7 mph64%29.83 "Hg10 mi
3:53 PM72 °FScattered clouds.9 mph59%29.84 "Hg10 mi
2:53 PM70 °FPartly sunny.7 mph64%29.85 "Hg10 mi
1:53 PM69 °FPartly sunny.6 mph66%29.86 "Hg10 mi
12:53 PM68 °FOvercast.No wind65%29.87 "Hg10 mi
11:53 AM66 °FOvercast.3 mph70%29.88 "Hg9 mi
10:53 AM64 °FOvercast.No wind75%29.89 "Hg7 mi
9:53 AM62 °FOvercast.No wind80%29.89 "Hg7 mi
8:53 AM61 °FOvercast.No wind83%29.89 "Hg7 mi
7:53 AM62 °FOvercast.No wind78%29.89 "Hg7 mi
6:53 AM62 °FOvercast.No wind78%29.88 "Hg6 mi
5:53 AM61 °FOvercast.3 mph81%29.86 "Hg8 mi
4:53 AM61 °FOvercast.No wind81%29.86 "Hg8 mi
3:53 AM61 °FOvercast.No wind83%29.87 "Hg9 mi
2:53 AM60 °FPassing clouds.No wind83%29.87 "Hg10 mi
1:53 AM61 °FClear.No wind81%29.87 "Hg10 mi
12:53 AM61 °FClear.No wind81%29.88 "Hg10 mi
11:53 PM
Mon, May 30
62 °FClear.No wind78%29.90 "Hg10 mi
10:53 PM59 °FClear.5 mph87%29.90 "Hg10 mi
9:53 PM60 °FClear.3 mph83%29.91 "Hg10 mi
8:53 PM64 °FSunny.5 mph73%29.90 "Hg10 mi
7:53 PM66 °FSunny.5 mph70%29.90 "Hg10 mi
6:53 PM68 °FSunny.7 mph65%29.89 "Hg10 mi
Weather by CustomWeather, © 2016

See weather overviewHow to use our weather pages